Dewpoint
73 72 71 70 51 45 44 47 48 49 50 52 53 52 54 56 50 50 59 63 68 69 69 71 76 75 74 75 75 74 74 73 73 73 73 72 72 73 73 73 73 72 72 73 73 73 73 73 72
71 70 71 57 44 41 45 48 49 50 53 56 57 56 54 53 55 57 60 67 68 66 66 69 76 76 74 75 76 75 74 73 73 73 72 72 72 73 72 72 73 73 73 73 72 73 72 73 73
71 72 61 50 45 41 45 48 52 53 54 54 56 58 55 56 57 59 62 64 65 66 68 72 76 76 75 75 75 75 74 74 73 73 73 73 72 72 72 72 72 72 72 72 72 73 73 72 73
70 69 54 44 44 45 48 51 53 53 55 56 54 53 58 59 59 61 64 64 65 66 66 73 75 75 75 75 74 74 74 73 73 73 73 72 72 72 72 72 72 72 72 72 72 73 72 72 72
67 56 46 45 45 47 48 50 51 51 53 55 55 52 56 62 62 63 64 63 63 63 65 69 75 75 75 75 75 75 74 74 74 74 74 74 73 73 73 72 72 72 72 72 71 72 71 72 73
54 49 43 44 47 49 50 51 49 51 55 54 54 52 55 63 62 63 63 62 63 63 65 70 75 75 75 74 74 74 74 74 74 74 73 73 73 73 73 72 73 73 72 72 71 72 72 73 73
50 44 43 45 47 48 50 49 47 50 52 52 53 52 57 60 62 62 60 60 63 64 65 68 70 72 73 74 74 75 74 73 74 74 73 73 72 72 73 73 73 73 72 73 71 72 72 72 72
51 46 43 44 44 49 50 48 47 48 52 54 53 54 55 59 61 59 59 59 60 62 65 68 70 69 68 69 74 74 74 74 74 73 73 73 73 73 74 73 73 72 73 72 73 73 72 71 71
53 44 44 45 43 49 51 52 52 49 49 52 54 51 56 60 59 59 59 59 62 62 62 64 65 67 68 66 71 74 74 74 74 74 73 73 69 69 70 72 73 73 73 73 73 73 73 71 71
46 45 49 50 48 48 50 52 48 49 53 55 54 55 58 60 59 57 57 58 59 62 64 64 64 65 66 65 70 70 68 68 69 70 73 74 71 73 71 72 72 71 71 73 74 74 73 71 69
49 48 51 50 49 49 50 51 50 51 50 52 54 55 57 57 57 54 55 56 57 62 64 65 67 68 65 66 67 67 66 69 71 73 74 75 74 73 73 73 75 77 74 75 71 72 68 68 67
49 50 50 51 52 50 50 51 50 52 51 51 54 54 55 55 53 52 52 54 58 62 63 64 67 70 68 66 67 66 66 68 69 70 74 76 77 74 75 77 75 73 77 72 71 70 70 70 69
48 49 51 51 52 51 52 51 51 52 53 52 53 54 55 55 55 54 54 54 57 60 62 63 67 70 70 71 67 67 68 67 68 70 71 73 76 73 75 73 73 73 72 71 72 73 74 73 73
48 47 50 51 51 52 50 52 53 54 54 52 53 53 55 56 56 57 56 56 58 59 59 61 65 69 69 70 71 70 70 69 70 70 71 73 73 73 76 75 72 71 71 71 71 73 72 71 70
48 44 48 49 51 50 52 53 51 55 55 52 52 53 55 57 58 59 59 59 61 61 60 62 65 66 70 71 71 71 70 68 70 70 73 75 75 73 75 71 71 71 72 72 72 73 71 71 70
42 42 42 45 47 51 47 49 53 56 55 53 53 54 55 57 57 60 60 60 62 62 62 64 63 64 68 70 71 70 70 70 70 70 71 73 75 75 76 74 71 71 73 69 69 69 68 73 71
38 36 37 39 46 47 45 48 54 55 54 53 53 55 56 57 59 60 61 62 62 64 64 64 65 64 67 70 71 71 72 71 69 70 71 73 75 75 77 73 73 75 71 69 69 68 69 69 72
34 33 37 36 42 44 43 44 52 54 53 53 53 55 57 57 58 61 62 62 62 64 66 66 64 67 70 69 72 70 70 70 70 70 71 74 73 74 74 73 74 73 69 68 69 70 68 69 74
34 33 33 34 41 44 43 43 49 53 54 54 53 53 53 55 57 59 62 62 63 64 66 67 67 70 70 69 69 68 68 69 70 71 75 74 74 74 74 71 73 72 71 71 72 69 70 68 71
34 32 31 35 42 43 41 41 45 51 53 54 54 54 54 54 55 58 60 62 63 65 66 68 69 71 71 68 69 68 68 69 70 72 74 73 74 74 73 74 73 73 70 72 71 70 66 67 68
32 30 30 30 34 39 36 38 43 48 52 53 53 54 54 54 53 54 57 60 61 64 66 68 70 71 72 71 70 71 71 72 70 70 71 72 74 73 75 74 73 75 73 68 70 69 70 65 67
30 30 30 29 30 26 30 31 43 46 50 52 52 52 52 55 54 53 53 55 58 61 64 67 70 71 72 73 71 73 68 66 65 67 68 71 74 74 74 76 76 76 70 72 68 66 67 70 65
31 30 30 28 27 25 31 30 40 43 45 49 51 51 52 53 53 53 53 54 56 59 61 64 69 72 72 73 74 71 72 67 66 68 72 75 75 75 75 76 75 74 70 71 71 70 71 66 64
29 30 31 30 27 23 26 29 29 35 38 42 46 51 51 51 53 54 55 55 56 59 61 63 68 72 73 73 74 74 73 71 68 69 68 68 70 72 76 75 76 75 72 71 70 70 71 70 68
26 18 19 21 24 19 26 28 29 32 34 38 39 48 51 51 52 53 54 55 57 59 61 64 69 72 73 73 73 74 74 74 73 72 68 68 67 68 73 76 75 73 74 73 71 73 70 69 67
16 14 13 23 20 16 29 25 29 32 35 42 45 46 50 51 51 53 55 56 58 60 63 65 68 72 72 72 73 75 75 70 69 71 68 66 66 67 73 75 75 75 74 73 73 69 67 68 64
15 18 14 12 16 17 18 24 25 30 37 43 46 48 50 51 51 52 53 55 57 60 63 65 68 71 71 70 73 73 74 73 70 72 72 68 71 69 74 75 76 75 75 74 73 68 70 68 66
15 14 13 15 21 21 16 20 20 29 25 40 45 45 49 50 52 51 53 55 57 58 61 65 67 70 70 69 71 71 73 74 73 73 74 73 71 73 74 75 75 75 75 75 75 70 71 69 65
12 14 15 12 15 17 16 17 17 21 27 39 47 49 49 48 51 52 54 57 58 60 61 63 66 70 70 68 70 72 71 71 73 71 73 74 74 75 75 77 76 76 75 75 75 74 71 71 69
10 11 11 15 21 15 13 13 17 33 42 46 48 50 54 55 51 52 53 57 58 61 62 66 68 68 69 65 67 66 69 73 69 71 71 71 74 75 75 76 77 76 76 76 75 74 71 71 69
Lifted_Index
-4 -4 -4 -3 -1 0 0 -0 -0 -1 -1 -1 -0 -0 -1 -1 -1 -0 -1 -1 -2 -2 -3 -3 -3 -3 -3 -3 -3 -2 -2 -2 -1 -1 -1 -1 -1 -2 -2 -2 -2 -2 -3 -3 -4 -4 -4 -4 -4
-4 -5 -4 -2 -1 0 0 -0 -1 -1 -1 -1 -1 -1 -1 -1 -1 -1 -1 -2 -3 -2 -2 -3 -3 -3 -3 -3 -3 -3 -2 -2 -1 -1 -1 -2 -2 -2 -2 -2 -2 -3 -3 -3 -3 -4 -4 -4 -4
-5 -5 -3 -1 0 0 0 -0 -1 -1 -2 -2 -1 -1 -0 -0 -1 -1 -2 -2 -3 -2 -2 -3 -3 -3 -3 -3 -3 -3 -2 -2 -2 -1 -2 -2 -2 -2 -2 -2 -3 -3 -3 -3 -3 -4 -4 -4 -4
-5 -4 -2 -0 0 0 0 -0 -1 -1 -2 -2 -1 -0 -0 -0 -1 -1 -2 -2 -2 -2 -2 -3 -3 -3 -3 -3 -3 -3 -3 -2 -2 -2 -2 -2 -2 -2 -3 -3 -3 -3 -3 -3 -3 -3 -4 -4 -4
-4 -2 -1 0 0 0 -0 -0 -0 -1 -1 -1 -1 -0 -0 -1 -1 -1 -1 -1 -1 -1 -1 -2 -3 -3 -3 -3 -3 -3 -3 -3 -2 -2 -2 -3 -3 -3 -3 -3 -3 -3 -3 -3 -2 -3 -3 -3 -3
-2 -1 -0 -0 -0 -0 -0 0 0 -0 -1 -1 -0 0 0 -1 -1 -1 -1 -1 -1 -1 -1 -2 -3 -3 -3 -3 -3 -3 -3 -3 -3 -3 -3 -3 -3 -3 -3 -3 -3 -3 -3 -2 -2 -2 -3 -3 -3
-1 -0 -0 -0 -0 -0 -0 0 1 0 -0 -0 0 1 0 -0 -1 -0 0 0 -0 -1 -1 -2 -2 -2 -2 -2 -3 -3 -3 -3 -3 -3 -3 -3 -3 -3 -4 -4 -3 -3 -3 -3 -2 -2 -2 -2 -3
-1 -1 -0 0 -0 -0 -0 0 1 1 0 0 1 1 1 0 0 1 1 1 0 -0 -1 -2 -2 -2 -1 -2 -2 -3 -3 -3 -3 -3 -3 -3 -3 -3 -3 -3 -3 -3 -3 -3 -2 -2 -2 -2 -2
-2 -1 -1 -0 -0 -1 -1 -0 1 1 1 0 0 1 1 1 1 1 1 1 1 0 -1 -1 -2 -1 -1 -1 -2 -2 -2 -2 -2 -3 -3 -3 -2 -2 -3 -3 -3 -2 -2 -3 -3 -3 -2 -2 -2
-2 -2 -1 -1 -1 -1 -1 -1 0 0 0 -0 0 1 1 1 1 1 1 1 1 0 -1 -1 -1 -1 -1 -1 -1 -2 -2 -2 -2 -2 -3 -3 -2 -2 -3 -3 -3 -2 -2 -2 -3 -3 -2 -2 -1
-2 -2 -2 -1 -1 -1 -1 -1 -1 -0 -1 -0 0 1 1 1 1 2 2 2 1 0 -1 -1 -2 -1 -1 -1 -1 -1 -1 -2 -2 -2 -3 -3 -3 -3 -3 -3 -3 -2 -2 -3 -3 -2 -2 -1 -1
-2 -2 -2 -2 -1 -1 -2 -2 -2 -1 -1 -0 0 1 1 1 1 2 2 2 1 0 -1 -1 -2 -2 -2 -1 -1 -1 -1 -2 -2 -3 -3 -3 -4 -3 -3 -3 -3 -3 -3 -3 -3 -3 -2 -2 -1
-2 -2 -2 -2 -2 -2 -2 -2 -2 -2 -1 -0 0 1 1 1 1 1 1 1 1 0 -0 -1 -1 -2 -2 -2 -2 -2 -2 -2 -2 -3 -3 -4 -4 -4 -4 -4 -4 -3 -3 -3 -3 -3 -3 -2 -2
-2 -2 -2 -2 -2 -2 -2 -3 -3 -2 -2 -1 0 0 -0 -0 -0 -0 0 0 0 -0 -0 -1 -1 -2 -2 -2 -2 -3 -3 -3 -3 -3 -4 -4 -4 -4 -4 -4 -4 -4 -4 -4 -3 -3 -3 -3 -3
-1 -1 -1 -2 -2 -2 -2 -3 -3 -3 -2 -1 -0 -0 -1 -1 -1 -1 -1 -1 -1 -1 -1 -1 -2 -2 -3 -3 -3 -3 -3 -4 -4 -4 -4 -5 -5 -4 -4 -4 -4 -4 -4 -4 -3 -3 -3 -3 -3
-1 -1 -1 -1 -1 -2 -2 -3 -3 -3 -2 -1 -1 -1 -1 -1 -2 -2 -2 -2 -2 -2 -2 -2 -2 -2 -3 -3 -3 -4 -4 -4 -4 -4 -5 -5 -5 -5 -5 -4 -4 -4 -4 -3 -3 -2 -3 -3 -3
-0 -0 -0 -0 -1 -1 -2 -3 -3 -3 -3 -2 -1 -1 -2 -2 -2 -2 -2 -3 -3 -3 -2 -2 -2 -3 -3 -3 -4 -4 -4 -4 -4 -4 -5 -5 -5 -5 -5 -5 -5 -5 -4 -3 -2 -2 -3 -3 -3
0 0 0 0 -0 -1 -2 -2 -3 -3 -3 -2 -2 -2 -2 -2 -2 -3 -3 -3 -3 -3 -3 -3 -3 -3 -4 -4 -4 -4 -4 -4 -4 -5 -5 -5 -5 -5 -5 -5 -5 -5 -4 -3 -3 -3 -3 -3 -3
1 1 1 1 -0 -1 -1 -2 -2 -3 -3 -3 -3 -2 -2 -2 -2 -3 -3 -3 -3 -3 -4 -4 -4 -4 -4 -4 -4 -4 -4 -4 -5 -5 -5 -6 -6 -5 -5 -5 -5 -4 -4 -3 -3 -3 -3 -3 -3
2 1 1 1 0 -0 -1 -1 -2 -2 -3 -3 -3 -3 -2 -2 -2 -3 -3 -3 -3 -4 -4 -4 -4 -4 -4 -4 -4 -4 -4 -5 -5 -5 -6 -6 -6 -6 -5 -5 -5 -5 -4 -4 -3 -3 -3 -3 -3
1 1 1 2 1 0 -0 -1 -2 -2 -3 -3 -3 -3 -3 -2 -2 -3 -3 -3 -3 -4 -4 -4 -4 -5 -5 -5 -5 -5 -5 -5 -5 -5 -5 -6 -6 -6 -6 -6 -5 -5 -5 -4 -4 -3 -3 -3 -2
1 1 2 2 2 1 0 -1 -2 -2 -3 -3 -3 -3 -3 -3 -3 -3 -3 -3 -3 -4 -4 -4 -5 -5 -5 -5 -5 -5 -5 -4 -4 -5 -5 -6 -6 -6 -6 -6 -6 -5 -5 -4 -4 -3 -2 -2 -2
2 2 3 2 1 1 0 -0 -1 -2 -2 -2 -3 -3 -3 -3 -3 -3 -3 -3 -3 -3 -4 -4 -5 -5 -5 -5 -5 -5 -5 -4 -4 -5 -5 -6 -6 -6 -6 -6 -6 -6 -5 -4 -3 -3 -2 -2 -1
3 3 2 2 1 -0 -0 -0 -1 -1 -1 -1 -2 -3 -3 -3 -3 -3 -3 -3 -3 -3 -4 -4 -5 -6 -6 -6 -6 -6 -5 -5 -5 -5 -5 -5 -6 -6 -6 -6 -6 -6 -5 -3 -3 -3 -2 -2 -1
4 3 1 0 -0 -1 -0 -0 -0 -0 0 -0 -1 -2 -3 -3 -4 -4 -4 -3 -3 -4 -4 -4 -5 -6 -6 -6 -6 -6 -6 -6 -5 -5 -5 -5 -5 -6 -6 -7 -6 -6 -5 -4 -3 -3 -2 -2 -1
3 2 1 -0 -1 -1 -0 -0 -0 0 0 -0 -1 -2 -3 -3 -3 -4 -4 -4 -4 -4 -5 -5 -5 -6 -6 -6 -6 -6 -6 -6 -5 -5 -5 -5 -5 -5 -6 -7 -7 -6 -5 -4 -4 -3 -2 -1 -0
3 2 1 -0 -1 -1 -1 -1 -0 0 -0 -1 -1 -2 -3 -3 -3 -4 -4 -4 -4 -5 -5 -5 -6 -6 -6 -6 -6 -6 -6 -6 -5 -5 -5 -5 -5 -6 -6 -7 -7 -7 -6 -5 -4 -3 -2 -1 -0
3 3 2 0 -1 -1 -1 -1 -0 -0 -0 -1 -1 -2 -3 -3 -4 -4 -4 -4 -5 -5 -5 -6 -6 -6 -6 -5 -6 -6 -6 -6 -6 -6 -6 -6 -6 -6 -7 -8 -8 -7 -7 -6 -5 -4 -3 -2 -1
3 2 1 0 -1 -1 -1 -1 -0 -0 -0 -1 -2 -2 -3 -3 -4 -4 -4 -4 -5 -5 -5 -6 -6 -6 -5 -4 -4 -5 -6 -7 -6 -6 -6 -6 -7 -7 -7 -8 -8 -8 -8 -7 -6 -5 -4 -3 -2
2 1 0 -0 -1 -1 -1 -1 -0 0 -0 -1 -2 -3 -3 -4 -4 -4 -4 -5 -5 -5 -6 -6 -6 -5 -4 -3 -2 -3 -5 -6 -6 -6 -6 -7 -7 -7 -8 -8 -8 -8 -8 -8 -7 -6 -5 -4 -3